STARLINK-2540, 48290

Orbit data source: Space-Track

STARLINK-2540, 48290 is a payload satellite owned by SpaceX/Seattle (US) in LEO that was launched on Thu, 29 Apr 2021 UTC via an FALCON 9 launch vehicle from the Air Force Eastern Test Range (AFETR). Payload-class satellites include a variety of spacecraft equipped with specific instruments for various scientific and technological missions. These include communications satellites like Starlink; space stations such as the ISS; scientific satellites like the Hubble; Earth observation satellites from companies like Planet Labs, Umbra, and HawkEye 360; GPS; miniature CubeSats for education and research; and military/defense satellites.

Loading next visibility...
Identifier
48290, 2021-036Q
Orbit
LEO
Country
Flag of USUS
Related business
Manufacturer
SpaceX/Seattle
Mission
Operational Commercial Communications
Bus & Motor
STARLINK, Unknown motor
Mass
260 kg wet, ~248 kg dry
Launch date (UTC)
2021-04-29 (4 years ago)
Launch vehicle
FALCON 9
Launch site
Air Force Eastern Test Range (AFETR)
Object type
Payload
Rocket body
Debris
Shape & HBR
Box + 1 Pan, 10.1 m
Radar Cross Section
13.562 m², Large (>1 m²)

Expand to show TLE details & history
Last TLE update: 16 hours ago

TLE from 16 hours ago
0 STARLINK-2540
1 48290U 21036Q   25294.57594116  .00010173  00000-0  70112-3 0  9991
2 48290  53.0554 346.1242 0001483  94.1475 265.9683 15.06386077247347
Epoch: 2025-10-21T13:49Z
TLE epoch observation values (Epoch: 2025-10-21T13:49:21.316Z)
Latitude
-0.00005°
Longitude
108.52342°
Altitude
548.206 km
Speed
7.589 km/s
True Right ascension
23h 04m 29s
True Declination
0° 00' 00"
Sunlit
Object was in full shadow at epoch
Visualization orbit readout
Latitude
Unknown
Longitude
Unknown
Altitude
Unknown
Speed
Unknown
Apparent Right ascension
Unknown
Apparent Declination
Unknown
Sunlit
N/A
Visualization observer readout
Local Sidereal Time
01:15:52
Azimuth
Unknown
Elevation
Unknown
Doppler factor
Unknown
Orbital elements
Apogee altitude
548.552 km
Perigee altitude
546.498 km
Semi-major axis
6,925.662 km
Eccentricity
0.00015
Inclination
53.0554°
RAAN
346.1242°
Arg. of periapsis
94.1475°
True anomaly
265.95135°
Mean anomaly
265.9683°
Eccentric anomaly
265.95982°
Mean motion
3.76575 °/min
Orbital period
95.6 mins
BSTAR
0.00070112
Loading maneuver chart data...
Computing Atmospheric mass density...
Loading historical data...
Loading historical data...
Loading historical data...
Loading historical data...
Loading historical data...
Loading historical data...
Loading historical data...

Documentation

Showing up to 5 results
|